{"data":{"norad_id":60156,"epoch":"2026-05-24T23:07:53.762016Z","epoch_age_seconds":78073,"freshness":"FRESH","line1":"1 60156U 24120X   26144.96381669 -.00000044  00000+0  10638-4 0  9992","line2":"2 60156  53.1606 325.6677 0001273  88.6564 271.4583 15.30193718108059","mean_motion":15.30193718,"eccentricity":0.0001273,"inclination_deg":53.1606,"raan_deg":325.6677,"arg_perigee_deg":88.6564,"mean_anomaly_deg":271.4583,"bstar":1.0638e-5,"rev_number":10805,"period_min":94.105732043007,"perigee_km":474.36139229695,"apogee_km":476.10626050936,"semimajor_km":6853.3708264032,"source":"CELESTRAK","updated_at":"2026-05-25T13:38:19.192636Z"}}